Location: Mapua
(41.2500°S, 173.1000°E)
Time: 01:01:44
(UTC+13:00)

ISS - Visible Passes

Search period start: 23 March 2019 00:00
Search period end: 02 April 2019 00:00
Orbit: 406 x 411 km, 51.6° (Epoch: 22 March)

Date Brightness Start Highest point End Pass type
(mag) Time Alt. Az. Time Alt. Az. Time Alt. Az.
25 Mar -0.5 06:41:40 10° NE 06:42:26 11° NE 06:43:13 10° ENE visible
27 Mar -1.8 06:33:41 10° NNW 06:36:32 26° NE 06:39:25 10° ESE visible
28 Mar -1.1 05:44:22 12° NNE 05:45:39 15° NE 05:47:35 10° E visible
29 Mar -3.6 06:28:39 21° NW 06:30:45 68° NE 06:34:06 10° ESE visible
30 Mar -2.4 05:40:01 35° ENE 05:40:01 35° ENE 05:42:51 10° ESE visible
31 Mar -3.4 06:24:02 34° W 06:25:05 50° SSW 06:28:24 10° SE visible
01 Apr -2.2 05:35:11 36° SE 05:35:11 36° SE 05:37:18 10° SE visible
01 Apr -1.9 07:08:17 10° WSW 07:10:53 20° SSW 07:13:29 10° SSE visible
